Temp
-0 -0 0 0 1 1 1 1 1 1 -0 -0 -1 -0 -1 0 1 1 2 2 2 1 1 1 2 2 2 2 2 2 2 2 2 2 2 2 2 2 2 2 2 2 2
1 0 1 0 1 0 0 1 1 1 -0 -0 0 1 -0 -1 1 1 1 2 1 1 2 1 2 2 2 2 2 2 2 2 2 2 2 2 2 2 2 2 2 1 1
1 0 0 0 1 0 0 -0 0 0 1 0 0 0 0 -0 0 0 1 1 1 1 1 1 1 2 2 2 2 2 1 1 2 1 2 2 2 1 1 1 1 1 1
1 1 0 -0 1 0 0 0 -0 0 0 1 1 -0 0 -0 -1 -0 0 1 1 1 1 1 2 2 2 2 2 1 2 1 2 2 2 2 2 1 1 1 1 1 0
-0 1 0 0 -0 0 -0 -0 0 0 -0 -0 -0 -0 0 -1 -1 -0 0 -0 1 -0 1 1 1 2 1 2 2 2 2 1 2 2 2 1 1 1 0 0 0 0 -0
-1 0 -0 0 -0 -0 -0 -1 -0 -0 -0 -0 -0 -0 -0 -0 -0 0 -0 -0 0 1 1 1 1 2 2 2 1 1 1 2 1 1 1 2 1 -0 -0 -0 -0 -0 -1
-1 -1 -1 -0 0 -0 -1 -1 -1 -1 -1 -1 -1 -1 -1 -1 -1 -2 -1 0 1 2 1 1 2 2 2 2 2 1 2 2 1 1 1 1 0 -0 -0 -0 -1 -1 -2
-1 -0 -1 -0 -1 -1 -1 -1 -1 -1 -1 -1 -1 -1 -1 -1 -2 -1 -1 0 1 1 2 2 2 2 2 2 2 2 2 2 1 1 0 0 -0 -1 -1 -2 -2 -3 -3
-2 -1 -1 -1 -1 -1 -1 -1 -1 -1 -1 -1 -1 -1 -1 -1 -1 -1 -1 -0 0 0 1 1 2 2 2 2 2 2 3 2 1 -1 -1 -1 -1 -2 -2 -3 -3 -3 -3
-2 -2 -2 -1 -1 -1 -2 -1 -2 -2 -2 -1 -1 -2 -1 -1 -1 -1 -1 -1 -0 -0 -1 -0 2 2 2 3 3 3 3 2 1 0 -0 -1 -2 -3 -3 -3 -3 -4 -3
-4 -3 -2 -2 -2 -1 -1 -1 -1 -2 -1 -1 -1 -1 -2 -2 -1 -1 -0 -0 -0 -0 0 0 1 1 1 2 2 3 2 2 2 2 1 -0 -2 -4 -4 -4 -4 -4 -5
-5 -4 -3 -2 -2 -2 -2 -1 -1 -1 -2 -1 -0 -1 -2 -1 -1 -1 -2 -2 -2 -1 -1 -1 -1 0 0 1 2 2 1 2 2 1 0 0 -3 -4 -4 -4 -4 -4 -4
-6 -5 -4 -4 -3 -2 -2 -1 -1 -2 -3 -2 -2 -2 -1 -2 -2 -2 -1 -1 -2 -2 -2 -2 -2 -1 0 1 1 1 1 0 1 1 -1 -3 -4 -5 -5 -5 -5 -5 -5
-8 -6 -5 -4 -3 -3 -3 -3 -3 -2 -2 -3 -2 -2 -2 -2 -2 -3 -2 -2 -2 -2 -2 -2 -1 -0 0 0 1 1 0 -2 -1 -1 -3 -5 -6 -6 -5 -5 -6 -6 -5
-9 -7 -6 -5 -4 -4 -4 -4 -4 -4 -3 -2 -3 -2 -2 -2 -2 -3 -3 -3 -3 -4 -3 -2 -2 -1 -2 -2 -2 -2 -2 -2 -3 -5 -6 -6 -6 -6 -6 -6 -6 -6 -6
-9 -8 -7 -5 -5 -4 -4 -3 -4 -4 -4 -4 -3 -3 -3 -3 -3 -3 -3 -4 -5 -5 -4 -5 -5 -5 -5 -4 -4 -5 -4 -5 -6 -6 -6 -6 -6 -6 -6 -6 -6 -6 -6
-10 -9 -8 -7 -6 -5 -5 -4 -4 -3 -3 -3 -3 -4 -4 -4 -4 -4 -5 -6 -5 -6 -6 -6 -6 -5 -6 -6 -6 -6 -6 -6 -6 -6 -6 -6 -7 -7 -7 -7 -7 -7 -7
-11 -10 -9 -8 -7 -7 -6 -5 -5 -4 -4 -3 -3 -3 -3 -4 -3 -4 -5 -6 -5 -6 -6 -6 -6 -6 -6 -6 -7 -7 -7 -7 -6 -6 -6 -7 -7 -7 -7 -7 -7 -8 -9
-12 -11 -10 -9 -8 -8 -7 -6 -5 -4 -4 -4 -3 -3 -3 -3 -4 -3 -4 -4 -5 -6 -6 -6 -7 -7 -7 -7 -7 -7 -7 -7 -7 -7 -7 -7 -8 -8 -9 -9 -9 -9 -9
-12 -12 -11 -11 -10 -10 -8 -7 -6 -5 -5 -4 -4 -4 -4 -4 -3 -3 -2 -3 -5 -7 -7 -7 -8 -7 -8 -7 -7 -7 -7 -7 -7 -8 -8 -8 -8 -9 -10 -9 -9 -9 -9
-13 -12 -11 -10 -10 -9 -9 -8 -8 -7 -7 -5 -5 -5 -4 -5 -5 -3 -4 -5 -7 -8 -8 -8 -7 -8 -8 -7 -7 -8 -8 -8 -8 -8 -8 -9 -10 -10 -10 -10 -10 -10 -10
-14 -13 -12 -11 -11 -10 -10 -9 -8 -7 -7 -7 -6 -6 -6 -6 -6 -5 -5 -8 -8 -8 -8 -8 -8 -8 -8 -8 -8 -8 -9 -9 -9 -10 -10 -10 -11 -11 -11 -11 -11 -11 -11
-16 -15 -14 -13 -12 -11 -11 -10 -9 -8 -8 -8 -7 -7 -8 -8 -8 -8 -8 -9 -8 -8 -8 -8 -8 -9 -9 -9 -9 -10 -11 -11 -11 -11 -11 -11 -12 -12 -12 -12 -12 -12 -12
-17 -16 -15 -14 -13 -12 -12 -11 -10 -10 -9 -9 -9 -9 -9 -9 -10 -10 -10 -9 -9 -9 -9 -9 -10 -11 -11 -10 -10 -11 -11 -12 -12 -13 -13 -13 -13 -12 -13 -13 -13 -12 -12
-17 -17 -16 -15 -15 -14 -13 -12 -11 -11 -10 -10 -10 -10 -10 -11 -11 -11 -11 -11 -11 -11 -12 -12 -11 -12 -12 -13 -12 -13 -13 -13 -14 -14 -14 -14 -14 -13 -13 -13 -13 -13 -13
-18 -18 -17 -17 -16 -16 -15 -14 -14 -13 -12 -12 -12 -12 -12 -12 -12 -12 -12 -13 -14 -14 -14 -14 -14 -14 -14 -14 -14 -14 -15 -14 -14 -15 -15 -15 -15 -15 -14 -14 -14 -14 -14
Height
2974 2980 2985 2988 2990 2996 2999 3005 3011 3019 3024 3032 3040 3048 3058 3066 3072 3077 3085 3091 3096 3103 3108 3112 3116 3120 3123 3125 3127 3129 3131 3133 3135 3136 3135 3134 3134 3134 3133 3132 3132 3131 3129
2968 2976 2980 2983 2988 2990 2996 3001 3008 3015 3022 3029 3035 3042 3049 3059 3066 3073 3080 3085 3091 3097 3100 3105 3109 3112 3115 3117 3121 3123 3125 3126 3128 3128 3128 3128 3127 3127 3125 3125 3125 3124 3123
2963 2971 2976 2981 2984 2988 2994 2998 3003 3009 3016 3021 3028 3034 3043 3054 3061 3068 3074 3078 3084 3089 3094 3098 3102 3105 3108 3111 3114 3115 3117 3118 3120 3120 3120 3121 3119 3118 3117 3117 3117 3116 3115
2957 2965 2972 2978 2980 2985 2990 2995 3000 3004 3009 3015 3024 3030 3038 3046 3054 3060 3066 3071 3077 3082 3086 3090 3093 3098 3102 3104 3105 3107 3110 3110 3111 3111 3112 3113 3113 3111 3109 3109 3109 3107 3106
2950 2959 2966 2973 2977 2982 2986 2992 2996 3001 3006 3011 3019 3023 3032 3039 3046 3054 3060 3064 3070 3075 3079 3084 3087 3092 3094 3095 3098 3101 3102 3102 3103 3104 3104 3103 3104 3103 3101 3100 3100 3098 3098
2943 2951 2960 2968 2972 2977 2983 2986 2991 2997 3003 3006 3013 3019 3025 3034 3039 3044 3053 3058 3064 3068 3073 3076 3079 3083 3085 3087 3090 3092 3093 3094 3095 3096 3095 3094 3095 3094 3092 3091 3091 3091 3088
2935 2945 2952 2958 2967 2972 2977 2981 2987 2991 2997 3003 3008 3014 3018 3025 3031 3038 3046 3052 3055 3059 3064 3066 3070 3074 3076 3079 3081 3082 3083 3084 3085 3087 3085 3086 3085 3085 3083 3082 3081 3080 3078
2927 2936 2945 2953 2960 2966 2972 2978 2982 2987 2993 2999 3004 3009 3015 3021 3027 3032 3037 3041 3046 3051 3056 3059 3061 3065 3069 3070 3071 3072 3074 3074 3076 3077 3076 3076 3076 3076 3075 3073 3071 3069 3067
2918 2926 2936 2945 2951 2959 2967 2972 2977 2982 2987 2993 3000 3004 3010 3015 3019 3024 3028 3034 3038 3043 3047 3051 3054 3057 3058 3061 3062 3063 3063 3064 3065 3065 3065 3066 3065 3066 3065 3062 3060 3058 3057
2911 2917 2926 2936 2943 2950 2957 2963 2969 2976 2982 2987 2993 2997 3001 3006 3011 3016 3020 3025 3030 3035 3040 3045 3048 3050 3050 3050 3051 3051 3054 3055 3054 3054 3053 3054 3055 3055 3053 3053 3051 3048 3046
2904 2911 2918 2927 2934 2941 2948 2955 2962 2969 2976 2980 2986 2988 2994 2998 3002 3007 3012 3017 3022 3026 3029 3034 3037 3038 3040 3041 3042 3043 3044 3043 3043 3043 3043 3043 3042 3043 3044 3044 3041 3040 3037
2898 2903 2909 2918 2926 2932 2939 2946 2953 2959 2967 2972 2978 2982 2988 2992 2995 3000 3003 3006 3010 3013 3017 3022 3026 3028 3031 3031 3032 3031 3032 3034 3033 3032 3032 3032 3033 3033 3033 3032 3031 3029 3027
2890 2895 2901 2909 2917 2923 2929 2936 2943 2950 2956 2963 2969 2975 2980 2984 2988 2992 2996 2999 3002 3004 3007 3011 3015 3018 3020 3019 3020 3021 3021 3022 3021 3021 3021 3021 3021 3021 3023 3022 3020 3019 3018
2884 2887 2893 2900 2908 2916 2921 2927 2934 2942 2949 2955 2961 2966 2970 2974 2979 2983 2986 2990 2993 2996 2998 3001 3003 3005 3006 3008 3009 3010 3009 3011 3011 3010 3010 3010 3012 3012 3013 3012 3011 3010 3010
2880 2882 2887 2894 2900 2907 2913 2919 2926 2933 2941 2945 2951 2956 2963 2966 2972 2974 2977 2981 2984 2987 2990 2990 2992 2993 2996 2998 2999 3000 3000 3001 3001 3001 3000 3001 3004 3004 3003 3002 3001 3001 3000
2876 2878 2883 2888 2893 2898 2904 2909 2916 2923 2930 2935 2941 2947 2952 2956 2960 2964 2968 2971 2975 2976 2976 2978 2981 2984 2986 2987 2989 2990 2989 2989 2992 2992 2992 2994 2996 2995 2995 2993 2993 2992 2991
2871 2874 2879 2883 2887 2891 2896 2901 2906 2912 2918 2923 2930 2936 2941 2947 2949 2952 2956 2960 2961 2966 2966 2969 2971 2973 2976 2978 2980 2980 2981 2982 2983 2984 2984 2985 2988 2989 2988 2986 2985 2984 2983
2866 2869 2872 2877 2882 2886 2891 2895 2900 2906 2911 2914 2920 2926 2930 2935 2939 2943 2948 2951 2950 2955 2958 2960 2962 2966 2969 2970 2973 2973 2975 2975 2975 2975 2976 2977 2979 2980 2980 2978 2977 2976 2976
2860 2862 2866 2871 2875 2880 2884 2888 2894 2899 2902 2907 2914 2919 2924 2927 2931 2934 2937 2940 2944 2949 2951 2954 2956 2959 2960 2962 2965 2967 2967 2967 2967 2968 2968 2969 2970 2970 2970 2969 2968 2968 2968
2856 2858 2862 2865 2869 2872 2875 2880 2885 2889 2894 2899 2905 2911 2916 2920 2923 2926 2927 2931 2936 2940 2943 2946 2949 2951 2953 2955 2957 2958 2960 2961 2961 2962 2962 2963 2963 2964 2964 2963 2962 2962 2960
2850 2853 2856 2860 2863 2865 2869 2873 2877 2882 2886 2891 2895 2900 2905 2910 2914 2916 2920 2924 2928 2932 2934 2937 2939 2942 2944 2946 2948 2950 2951 2951 2952 2954 2954 2955 2956 2957 2957 2956 2956 2956 2955
2845 2847 2849 2852 2855 2859 2863 2865 2870 2874 2877 2881 2885 2889 2895 2900 2904 2907 2909 2914 2919 2922 2924 2927 2929 2932 2935 2937 2939 2941 2942 2943 2944 2946 2946 2948 2949 2949 2949 2949 2950 2949 2948
2841 2843 2844 2846 2848 2850 2855 2859 2862 2865 2869 2872 2876 2882 2887 2890 2894 2896 2900 2905 2909 2911 2914 2917 2921 2924 2926 2928 2930 2932 2934 2936 2937 2938 2939 2941 2942 2942 2943 2942 2942 2941 2941
2834 2835 2836 2837 2840 2843 2847 2850 2853 2857 2860 2863 2867 2872 2876 2880 2884 2887 2891 2895 2899 2902 2904 2908 2912 2915 2918 2918 2920 2923 2926 2928 2929 2932 2932 2933 2934 2935 2935 2936 2936 2936 2935
2829 2829 2830 2832 2834 2836 2840 2843 2846 2849 2852 2855 2859 2863 2866 2871 2876 2880 2883 2886 2890 2892 2895 2899 2901 2906 2909 2911 2913 2914 2916 2919 2923 2924 2926 2926 2927 2928 2928 2929 2929 2929 2930
2825 2826 2827 2828 2829 2832 2835 2837 2840 2843 2845 2848 2852 2855 2860 2863 2869 2874 2877 2880 2883 2885 2888 2893 2894 2897 2900 2903 2907 2909 2911 2913 2914 2919 2921 2920 2920 2921 2922 2923 2923 2923 2925
Wind_Speed
31 26 24 18 22 22 27 35 27 35 27 49 56 54 56 50 48 46 47 48 45 46 42 39 37 37 36 36 35 33 31 31 33 32 32 32 33 33 31 31 32 32 31
36 30 26 21 21 22 30 26 35 35 33 42 52 50 58 51 51 49 49 48 46 44 38 41 39 39 39 37 37 34 33 34 36 34 36 36 36 34 33 34 35 34 34
40 32 29 24 22 19 28 24 30 41 45 38 42 40 50 51 49 46 46 44 44 42 42 40 39 40 39 39 39 37 37 36 38 37 39 41 39 35 36 37 38 37 37
42 37 31 28 23 24 22 27 30 27 37 41 46 40 45 59 47 42 45 44 45 43 42 40 42 42 42 42 41 39 41 40 40 40 40 43 44 38 38 39 40 39 40
45 42 35 35 31 30 23 28 29 31 34 35 32 44 39 45 52 55 39 41 37 38 38 40 43 43 43 41 42 43 43 42 42 44 40 41 46 44 41 42 44 41 43
44 42 38 39 35 33 28 26 32 38 39 41 49 45 47 46 42 38 42 36 35 36 36 38 41 41 42 43 44 45 42 43 45 45 44 44 48 48 45 46 47 45 44
48 48 42 36 38 32 28 30 32 31 34 33 37 46 48 46 42 39 38 36 32 33 36 39 42 43 44 47 46 47 44 47 47 47 48 49 51 50 49 50 48 49 46
49 51 46 43 44 38 34 29 25 23 31 32 34 32 44 42 45 42 42 40 38 31 28 32 36 41 42 42 45 46 46 49 49 49 52 53 53 52 52 51 52 52 49
50 50 45 44 42 42 38 37 30 30 22 30 27 43 42 43 52 51 51 50 47 40 33 28 29 32 33 37 38 40 41 45 47 48 52 53 53 53 53 52 51 51 49
47 47 47 47 47 44 42 42 38 36 32 36 36 25 37 42 41 46 44 45 51 47 45 42 33 30 33 36 38 38 40 43 45 47 49 51 51 53 52 52 50 50 49
41 45 46 46 44 43 43 43 45 42 43 38 40 34 27 30 45 46 46 56 54 56 58 54 45 41 39 41 43 43 42 43 44 45 47 49 51 51 51 50 49 48 47
41 42 46 48 47 45 44 42 42 43 41 41 38 45 36 33 32 35 35 34 40 53 57 55 51 55 51 48 43 40 41 39 41 42 44 46 48 47 48 49 46 47 48
33 38 40 43 45 45 42 42 44 45 42 47 39 40 44 40 37 38 36 36 36 32 32 39 42 44 46 49 44 39 40 38 41 43 41 41 42 44 46 44 45 45 45
24 28 35 39 41 44 44 43 43 45 46 48 46 37 41 41 41 41 40 44 43 38 38 42 44 44 44 43 42 44 43 39 39 39 38 39 40 42 41 42 41 43 42
21 25 29 36 42 43 43 44 44 42 43 45 41 43 45 47 45 45 41 41 42 45 43 44 45 45 44 42 39 36 38 38 36 33 33 35 35 34 36 41 41 41 38
22 24 28 31 32 35 41 44 44 47 49 50 49 49 51 51 50 49 51 51 44 43 39 39 38 40 38 36 35 34 33 31 30 29 29 30 33 37 39 38 37 37 35
20 24 26 28 29 28 29 31 37 45 48 49 50 52 52 54 53 45 37 34 34 37 39 38 36 34 30 28 28 27 27 26 27 28 29 31 34 35 35 35 35 34 32
18 21 25 29 28 27 28 29 29 30 32 34 34 35 36 35 34 33 35 37 35 34 32 30 27 26 25 25 26 25 26 26 26 27 28 30 31 32 33 32 31 31 30
18 19 22 25 27 30 27 27 29 31 31 31 31 31 32 32 32 32 33 33 32 29 28 26 25 26 26 27 28 28 28 28 28 29 29 29 29 29 29 29 28 28 27
19 21 22 23 24 25 27 31 33 31 32 33 33 34 35 35 36 36 36 34 32 29 29 29 29 29 29 29 30 29 29 29 30 29 28 28 28 28 28 27 27 27 26
18 21 23 24 25 26 26 28 31 35 36 35 34 35 37 38 39 42 40 35 32 31 30 30 31 32 32 32 32 32 32 31 29 29 28 28 26 25 26 26 27 27 27
16 18 21 23 25 27 28 28 30 32 32 32 33 34 35 35 37 39 39 35 31 32 33 34 35 35 34 33 33 32 32 30 28 27 27 25 25 25 25 25 26 26 25
14 16 18 20 22 24 25 27 29 30 31 31 32 33 33 33 34 35 34 32 33 35 36 36 37 36 34 33 32 30 28 26 26 26 25 24 24 24 24 24 24 23 23
13 14 16 17 19 21 23 25 27 28 29 30 31 33 34 33 33 33 34 33 35 37 37 36 34 32 31 31 30 29 27 25 24 24 24 23 23 23 22 22 22 22 21
11 13 14 15 17 19 21 23 25 26 27 28 29 30 31 31 32 32 32 32 33 33 32 32 32 30 29 28 27 26 25 23 22 22 22 21 21 21 21 22 21 19 18
10 11 12 12 13 14 16 18 21 23 24 25 26 26 27 27 28 29 29 29 29 29 28 28 27 26 26 25 24 23 22 22 21 21 21 20 19 20 21 22 19 17 19
Wind_Direction
198 207 213 208 203 219 213 215 215 213 203 209 205 208 203 206 212 214 217 218 220 224 225 229 232 235 239 242 245 248 252 257 261 265 268 270 275 278 282 286 289 291 294
210 208 204 207 208 210 206 207 221 216 210 209 214 223 211 205 215 219 220 220 222 225 226 231 232 236 239 243 247 250 253 257 262 265 270 271 272 277 283 286 288 290 294
209 208 206 202 206 200 209 215 208 215 221 227 210 218 203 207 214 218 221 222 224 224 227 230 235 238 241 245 247 250 253 255 260 265 268 271 273 277 282 286 287 291 294
210 207 211 210 206 212 211 217 220 222 220 215 209 210 214 208 211 220 220 222 225 225 229 232 236 240 242 244 247 251 253 256 259 263 268 275 278 278 280 283 285 290 292
214 212 213 214 206 208 201 213 212 217 211 213 205 215 206 209 213 222 214 218 221 233 234 236 239 241 245 248 252 253 255 259 263 266 268 273 278 278 279 282 284 288 289
217 209 212 209 215 222 206 215 210 208 218 209 217 222 223 210 207 202 216 220 225 230 236 240 241 243 246 248 249 252 256 261 264 267 270 273 273 276 278 281 285 286 289
212 213 219 210 211 210 213 214 203 207 216 225 228 215 200 202 203 204 211 220 222 230 237 241 244 245 247 248 251 253 256 260 263 266 270 272 273 275 279 281 285 287 291
210 213 213 215 215 213 209 210 210 205 209 217 224 222 226 213 209 218 217 223 226 233 243 245 245 247 248 252 253 255 258 260 262 266 268 270 273 275 280 284 285 288 292
209 206 207 216 209 217 212 211 210 218 218 231 226 220 216 219 219 221 224 225 229 237 248 253 250 251 252 252 255 256 259 262 263 264 268 271 274 277 279 281 284 289 291
203 205 207 213 211 218 210 216 214 220 232 238 242 239 231 229 233 237 235 234 235 240 242 244 249 265 263 263 264 266 268 269 266 266 267 269 272 271 275 278 282 286 289
203 205 205 214 213 212 214 218 220 221 225 224 234 225 235 229 233 237 243 244 242 241 246 250 256 263 268 268 264 263 264 264 265 268 269 268 268 272 275 278 280 285 288
211 210 205 211 215 215 216 219 218 218 223 222 231 229 235 232 230 237 242 238 244 247 248 249 251 255 263 268 266 264 265 267 269 267 267 270 270 273 275 275 279 284 286
209 209 210 212 217 218 219 219 222 225 224 222 226 227 236 237 244 245 246 241 245 241 243 249 247 251 262 265 268 270 271 270 268 268 267 268 270 273 273 277 280 282 287
215 213 214 214 216 218 218 220 220 219 223 224 223 231 232 245 240 249 250 249 251 253 255 257 257 257 259 261 263 270 277 276 270 268 266 266 269 272 275 278 281 281 283
213 212 214 215 217 216 216 217 217 217 216 218 223 227 230 236 240 242 243 245 250 257 255 256 259 260 263 268 271 274 273 272 271 268 266 267 270 276 275 274 277 283 289
219 210 211 214 214 216 217 218 219 219 220 221 223 227 230 233 239 242 248 250 251 254 250 252 255 261 267 268 269 269 269 268 267 266 266 267 268 268 271 276 281 284 288
226 219 213 210 210 212 214 215 220 223 225 228 229 232 235 238 242 245 244 247 249 247 248 254 254 259 261 261 261 262 264 264 264 265 265 267 270 274 277 279 282 285 288
238 231 223 216 213 212 214 213 214 216 215 214 217 220 222 224 225 227 232 238 240 241 242 242 249 254 253 254 255 256 259 260 261 261 264 265 268 272 275 279 282 285 289
248 245 238 232 226 219 218 219 222 223 223 223 224 226 227 226 227 229 231 235 239 239 246 248 251 254 253 255 256 256 256 257 259 260 262 264 266 268 271 274 279 284 288
237 238 241 241 240 238 233 231 229 229 231 231 232 236 238 238 239 241 242 241 242 241 243 245 248 251 255 256 258 260 265 268 267 267 268 268 270 272 275 279 281 282 286
241 235 234 235 234 235 232 230 233 233 234 238 237 238 242 244 245 248 249 247 248 248 249 252 251 252 255 259 261 264 265 265 266 266 267 268 268 270 273 276 279 282 285
247 242 237 233 231 232 232 232 233 232 231 232 234 234 235 238 242 245 247 245 243 245 246 247 248 249 251 254 257 258 259 260 260 261 261 262 264 266 268 272 277 281 284
250 244 239 237 234 233 233 232 232 233 231 228 230 232 231 230 231 235 237 234 235 239 241 244 248 251 252 254 256 256 255 256 258 260 262 262 263 266 269 272 274 277 280
253 247 243 240 237 235 236 234 231 230 231 231 229 228 228 229 228 228 230 230 232 236 239 242 244 246 248 248 249 249 251 252 253 254 256 257 261 264 267 270 272 274 276
253 246 241 238 237 234 233 233 231 229 228 228 229 229 228 226 226 225 224 225 226 229 233 236 239 241 241 242 243 244 244 244 246 248 251 253 256 260 263 264 262 266 271
247 238 234 233 233 231 229 227 225 225 224 223 222 222 222 219 218 216 214 213 217 224 229 232 233 235 238 239 240 241 240 241 242 247 251 254 256 258 258 257 259 258 262